Oujda, Morocco

12:49 AM WET on January 23, 2018 (GMT +0000)
Oujda

Weather History for GMFO - August, 2013

Change the Weather History Date:

Saturday, August 31, 2013

  Actual Average Record
Temperature  
Mean Temperature 71 °F -  
Max Temperature 82 °F 83 °F 100 °F (1998)
Min Temperature 60 °F 59 °F 59 °F (2001)
Cooling Degree Days 6    
Growing Degree Days 21 (Base 50)    
Moisture  
Dew Point 62 °F    
Average Humidity 71    
Maximum Humidity 94    
Minimum Humidity 40    
Precipitation  
Precipitation 0.00 in 0.01 in - ()
Sea Level Pressure  
Sea Level Pressure 30.12 in    
Wind  
Wind Speed 6 mph ()    
Max Wind Speed 17 mph    
Max Gust Speed -    
Visibility 6.5 miles    
Events      
Averages and records for this station are not official NWS values.
T = Trace of Precipitation, MM = Missing Value Source: Averaged Metar Reports

Daily Weather History Graph

Daily Weather History Graph

Search for Another Location

Airport or City:

Trip Planner

Search our weather history database for the weather conditions in past years. The results will help you decide how hot, cold, wet, or windy it might be!

Date:

Astronomy

Aug. 31, 2013 Rise Set
Actual Time 6:39 AM WEST 7:35 PM WEST
Civil Twilight 6:14 AM WEST 8:01 PM WEST
Nautical Twilight 5:43 AM WEST 8:31 PM WEST
Astronomical Twilight 5:11 AM WEST 9:03 PM WEST
Moon 2:03 AM WEST (8/31) 4:17 PM WEST (8/31)
Length of Visible Light 13h 47m
Length of Day
12h 55m
Waning Crescent, 23% of the Moon is Illuminated
Aug 31
Waning Crescent
Sep 5
New
Sep 12
First Quarter
Sep 19
Full
Sep 27
Last Quarter

Hourly Weather History & Observations

Time (WEST) Temp. Heat Index Dew Point Humidity Pressure Visibility Wind Dir Wind Speed Gust Speed Precip Events Conditions
12:00 AM 68.0 °F - 64.4 °F 88% 30.12 in 6.2 mi North 6.9 mph - N/A   Partly Cloudy
1:00 AM 68 °F - 64 °F 83% 30.09 in 6 mi North 3.5 mph - -   Partly Cloudy
1:00 AM 68.0 °F - 64.4 °F 88% 30.12 in 6.2 mi North 3.5 mph - N/A   Partly Cloudy
4:00 AM 63 °F - 60 °F 87% 30.10 in - Calm Calm - -  
6:00 AM 60.8 °F - 59.0 °F 94% 30.12 in 6.2 mi WSW 3.5 mph - N/A   Partly Cloudy
7:00 AM 61 °F - 59 °F 89% 30.12 in 6 mi WSW 3.5 mph - -   Scattered Clouds
7:00 AM 60.8 °F - 59.0 °F 94% 30.15 in 6.2 mi WSW 3.5 mph - N/A   Partly Cloudy
8:00 AM 66.2 °F - 64.4 °F 94% 30.15 in 6.2 mi Calm Calm - N/A   Partly Cloudy
9:00 AM 69.8 °F - 64.4 °F 83% 30.15 in 6.2 mi Variable 1.2 mph - N/A   Scattered Clouds
10:00 AM 74 °F - 62 °F 58% 30.10 in 9 mi NE 5.8 mph - -   Partly Cloudy
10:00 AM 73.4 °F - 62.6 °F 69% 30.15 in 6.2 mi NE 5.8 mph - N/A   Scattered Clouds
11:00 AM 75.2 °F - 60.8 °F 61% 30.15 in 6.2 mi NE 8.1 mph - N/A   Mostly Cloudy
12:00 PM 77.0 °F - 60.8 °F 57% 30.15 in 6.2 mi NE 5.8 mph - N/A   Mostly Cloudy
1:00 PM 81 °F - 61 °F 40% 30.05 in 9 mi NNE 10.4 mph - -   Mostly Cloudy
1:00 PM 80.6 °F 81.5 °F 60.8 °F 51% 30.12 in 6.2 mi NNE 10.4 mph - N/A   Mostly Cloudy
3:00 PM 82.4 °F 83.4 °F 62.6 °F 51% 30.09 in 6.2 mi NNE 15.0 mph - N/A   Mostly Cloudy
3:44 PM 82 °F - 63 °F 43% 30.01 in 9 mi North 16.1 mph - -   Mostly Cloudy
4:00 PM 82.4 °F 83.4 °F 62.6 °F 51% 30.09 in 6.2 mi North 17.3 mph - N/A   Scattered Clouds
5:00 PM 80.6 °F 81.8 °F 62.6 °F 54% 30.09 in 6.2 mi North 17.3 mph - N/A   Scattered Clouds
6:00 PM 77.0 °F - 64.4 °F 65% 30.12 in 6.2 mi North 17.3 mph - N/A   Scattered Clouds
7:00 PM 75.2 °F - 62.6 °F 65% 30.12 in 6.2 mi North 16.1 mph - N/A   Scattered Clouds
9:00 PM 71.6 °F - 62.6 °F 73% 30.15 in 6.2 mi NNW 5.8 mph - N/A   Partly Cloudy
10:00 PM 69.8 °F - 62.6 °F 78% 30.15 in 6.2 mi North 5.8 mph - N/A   Partly Cloudy
11:00 PM 68.0 °F - 62.6 °F 83% 30.18 in 6.2 mi Variable 2.3 mph - N/A   Partly Cloudy